GW2364 Weather Reports


time (UTC)temp
F
wind
direction
speed
knots
gust
knots
rain 1hr
in
rain 24hr
in
rain mn
in
humidity
%
barometer
mb
20260904023005 82 108 3.5 11.3 0.00 0.00 0.00 74 1009.9
20260904021505 83 86 2.6 7.8 0.00 0.00 0.00 72 1009.9
20260904020007 83 111 0.9 6.1 0.00 0.00 0.00 71 1009.7
20260904014505 84 96 1.7 6.1 0.00 0.00 0.00 70 1009.5
20260904013005 84 96 1.7 6.1 0.00 0.00 0.00 69 1009.1
20260904011511 85 63 2.6 7.8 0.00 0.00 0.00 68 1009.0
20260904010010 85 150 2.6 7.8 0.00 0.00 0.00 67 1009.0
20260904004505 86 67 2.6 7.8 0.00 0.00 0.00 66 1009.1
20260904003007 86 35 2.6 9.6 0.00 0.00 0.00 66 1009.1
20260904001504 87 94 3.5 12.2 0.00 0.00 0.00 65 1009.0
20260904000009 88 64 4.3 11.3 0.00 0.00 0.00 63 1009.0
20260903234505 89 52 2.6 7.8 0.00 0.00 0.00 64 1008.8
20260903233004 89 75 3.5 8.7 0.00 0.00 0.00 64 1008.7
20260903231504 91 48 4.3 10.4 0.00 0.00 0.00 62 1008.5
20260903230010 93 70 4.3 12.2 0.00 0.00 0.00 55 1008.4
20260903224510 95 88 5.2 11.3 0.00 0.00 0.00 50 1008.0
20260903223004 94 123 3.5 8.7 0.00 0.00 0.00 51 1008.0
20260903221505 95 146 3.5 9.6 0.00 0.00 0.00 51 1007.9
20260903220018 95 57 5.2 13.9 0.00 0.00 0.00 50 1007.8
20260903214507 98 81 3.5 8.7 0.00 0.00 0.00 46 1007.9
20260903213004 98 48 1.7 7.8 0.00 0.00 0.00 47 1008.0
20260903211504 98 98 2.6 8.7 0.00 0.00 0.00 47 1008.1
20260903210006 100 90 3.5 9.6 0.00 0.00 0.00 45 1008.2
20260903204510 99 70 3.5 9.6 0.00 0.00 0.00 45 1008.5
20260903203004 101 131 4.3 8.7 0.00 0.00 0.00 43 1008.7
20260903201506 101 107 4.3 9.6 0.00 0.00 0.00 44 1008.8
20260903200006 100 68 2.6 7.8 0.00 0.00 0.00 45 1008.8
20260903194505 99 123 1.7 7.8 0.00 0.00 0.00 46 1009.1
20260903193004 99 41 1.7 8.7 0.00 0.00 0.00 46 1009.3
20260903191507 99 38 1.7 8.7 0.00 0.00 0.00 46 1009.5
20260903190007 98 78 3.5 8.7 0.00 0.00 0.00 47 1009.8
20260903184504 98 61 3.5 8.7 0.00 0.00 0.00 48 1010.0
20260903183004 97 236 0.9 4.3 0.00 0.00 0.00 46 1010.3
20260903181504 97 181 2.6 8.7 0.00 0.00 0.00 47 1010.6
20260903180007 95 271 2.6 8.7 0.00 0.00 0.00 50 1010.6
20260903174504 96 191 3.5 8.7 0.00 0.00 0.00 48 1010.7
20260903173015 96 111 1.7 7.0 0.00 0.00 0.00 51 1010.9
20260903171507 95 209 1.7 8.7 0.00 0.00 0.00 55 1011.0
20260903170006 92 263 0.9 11.3 0.00 0.00 0.00 59 1011.2
20260903164504 92 196 2.6 12.2 0.00 0.00 0.00 58 1011.1
20260903163005 92 146 2.6 7.0 0.00 0.00 0.00 58 1011.3
20260903161504 92 242 1.7 7.8 0.00 0.00 0.00 61 1011.3
20260903160010 89 261 4.3 11.3 0.00 0.00 0.00 63 1011.2
20260903154504 88 234 3.5 11.3 0.00 0.00 0.00 67 1011.2
20260903153004 88 241 4.3 10.4 0.00 0.00 0.00 67 1011.2
20260903151504 87 259 2.6 9.6 0.00 0.00 0.00 71 1011.3
20260903150010 86 250 4.3 8.7 0.00 0.00 0.00 72 1011.2
20260903144504 85 254 3.5 11.3 0.00 0.00 0.00 75 1011.2
20260903143005 84 225 3.5 11.3 0.00 0.00 0.00 76 1011.3
20260903141505 83 227 5.2 9.6 0.00 0.00 0.00 79 1011.3
20260903140006 82 244 3.5 8.7 0.00 0.00 0.00 81 1011.4
20260903134507 82 243 3.5 7.0 0.00 0.00 0.00 82 1011.4
20260903133003 81 244 2.6 8.7 0.00 0.00 0.00 83 1011.4
20260903131504 81 235 2.6 6.1 0.00 0.00 0.00 84 1011.4
20260903130005 80 258 0.9 6.1 0.00 0.00 0.00 85 1011.4
20260903124503 80 256 1.7 7.0 0.00 0.00 0.00 86 1011.2
20260903123005 79 243 1.7 7.0 0.00 0.00 0.00 86 1011.1
20260903121503 79 231 0.9 4.3 0.00 0.00 0.00 87 1011.1
20260903120006 79 209 1.7 7.0 0.00 0.00 0.00 87 1010.9
20260903114503 79 225 0.9 5.2 0.00 0.00 0.00 88 1011.0
20260903113003 79 221 0.0 3.5 0.00 0.00 0.00 88 1010.8
20260903111503 79 232 0.9 3.5 0.00 0.00 0.00 88 1010.8
20260903110005 79 219 0.0 5.2 0.00 0.00 0.00 88 1010.8
20260903104504 79 171 0.0 4.3 0.00 0.00 0.00 88 1010.7
20260903103005 79 155 0.0 3.5 0.00 0.00 0.00 88 1010.6
20260903101506 79 274 0.9 2.6 0.00 0.00 0.00 87 1010.7
20260903100005 79 170 0.0 2.6 0.00 0.00 0.00 87 1010.6
20260903094502 79 292 0.0 3.5 0.00 0.00 0.00 87 1010.7
20260903093004 79 213 0.0 1.7 0.00 0.00 0.00 87 1010.9
20260903091502 79 148 0.9 6.1 0.00 0.00 0.00 87 1010.9
20260903090005 80 195 0.0 1.7 0.00 0.00 0.00 86 1010.9
20260903084504 80 209 0.9 3.5 0.00 0.00 0.00 86 1010.9
20260903083001 80 78 0.9 7.0 0.00 0.00 0.00 85 1011.0
20260903081508 80 53 0.9 5.2 0.00 0.00 0.00 84 1010.9
20260903080006 80 246 1.7 4.3 0.00 0.00 0.00 84 1011.0
20260903074502 80 101 0.9 3.5 0.00 0.00 0.00 83 1011.0
20260903073002 80 116 0.0 3.5 0.00 0.00 0.00 82 1011.1
20260903071503 81 189 0.0 3.5 0.00 0.00 0.00 81 1011.1
20260903070005 81 128 0.9 4.3 0.00 0.00 0.00 80 1011.2
20260903064502 81 117 0.9 4.3 0.00 0.00 0.00 78 1011.3
20260903063001 82 104 1.7 7.0 0.00 0.00 0.00 77 1011.4
20260903061503 82 23 0.9 7.8 0.00 0.00 0.00 75 1011.4
20260903060007 82 175 0.9 8.7 0.00 0.00 0.00 74 1011.3
20260903054505 83 96 0.0 4.3 0.00 0.00 0.00 72 1011.3
20260903053009 83 107 1.7 6.1 0.00 0.00 0.00 69 1011.1
20260903051504 83 47 3.5 10.4 0.00 0.00 0.00 67 1011.1
20260903050011 83 113 3.5 10.4 0.00 0.00 0.00 67 1011.1
20260903031526 87 83 0.9 4.3 0.00 0.00 0.00 61 1010.6
20260903030015 88 84 1.7 5.2 0.00 0.00 0.00 59 1010.2
20260903024507 88 56 1.7 4.3 0.00 0.00 0.00 57 1009.9